{"data":{"norad_id":69409,"intl_designator":"2026-125J","name":"QIANFAN-191","alt_names":[],"object_type":"PAYLOAD","status":"ACTIVE","operator":null,"country":"PRC","launch_date":"2026-06-05","launch_site_code":"WSC","launch_vehicle":null,"mission":null,"orbit_class":"UNKNOWN","rcs_meters":null,"size_class":null,"mass_kg":null,"dimensions":null,"purposes":[],"wikipedia_slug":null,"has_3d_model":false,"image_url":null,"decayed_at":null,"tle_current":{"epoch":"2026-09-20T04:47:33.427680Z","epoch_age_seconds":60666,"freshness":"FRESH","line1":"1 69409U 26125J   26263.19969245  .00000040  00000+0  43347-4 0  9996","line2":"2 69409  88.9881 270.3488 0002040 102.3460 257.7920 13.51032936 14770","mean_motion":13.51032936,"eccentricity":0.000204,"inclination_deg":88.9881,"raan_deg":270.3488,"arg_perigee_deg":102.346,"mean_anomaly_deg":257.792,"bstar":4.3347e-5,"rev_number":1477,"period_min":106.58511436911,"perigee_km":1066.9414528736,"apogee_km":1069.9796646775,"semimajor_km":7446.5975587756,"source":"CELESTRAK","updated_at":"2026-09-20T09:00:24.866617Z"}}}